Regional Weather Roundup
Issued by NWS Sioux Falls, SD

Home | Current Version | Previous Version | Graphics & Text | Print | Product List | Glossary On
Versions: 1 2 3 4 5 6 7 8 9 10 11 12 13 14 15 16 17 18 19 20 21 22 23 24 25 26 27 28 29 30 31 32 33 34 35 36 37 38 39 40 41 42 43 44 45 46 47 48 49 50
000
ASUS43 KFSD 222102
RWRFSD

WEATHER ROUNDUP FOR SE SOUTH DAKOTA/SW MINNESOTA/NW IOWA
NATIONAL WEATHER SERVICE SIOUX FALLS SD
400 PM CDT MON MAY 22 2017

NOTE: "FAIR" INDICATES FEW OR NO CLOUDS BELOW 12,000 FEET WITH NO
SIGNIFICANT WEATHER AND OR OBSTRUCTIONS TO VISIBILITY.


SDZ038>040-050-052>070-222200-
SOUTHEAST SOUTH DAKOTA

CITY           SKY/WX    TMP DP  RH WIND       PRES   REMARKS
BROOKINGS      TSTM      50  46  86 N10       29.88R
CHAMBERLAIN    CLOUDY    59  48  67 N17G25    29.92S
HURON          LGT RAIN  51  48  89 N12       29.92R
MADISON        MOCLDY    52  52 100 W14       29.88S
MITCHELL       CLOUDY    60  49  66 N15       29.91R
SIOUX FALLS    CLOUDY    62  50  64 W12       29.87S
WINNER         MOCLDY    61  50  67 N21G28    29.93S
YANKTON        CLOUDY    63  47  55 W16       29.89F
$$

MNZ071-072-080-081-089-090-097-098-222200-
SOUTHWEST MINNESOTA

CITY           SKY/WX    TMP DP  RH WIND       PRES   REMARKS
FAIRMONT       PTSUNNY   67  45  45 N5        29.84F
JACKSON        CLOUDY    64  45  48 CALM      29.84S
LUVERNE        CLOUDY    59  46  63 W14       29.87R
MARSHALL       LGT RAIN  58  49  72 NW5       29.86S
MONTEVIDEO     SUNNY     64  43  45 N8G16     29.85F
PIPESTONE      LGT RAIN  57  46  67 NW10      29.85S
REDWOOD FALLS  PTSUNNY   64  45  49 NW9       29.84S
TRACY          CLOUDY    62  49  63 N10       29.85S
WINDOM         MOSUNNY   64  45  48 N8        29.84S
WORTHINGTON    CLOUDY    63  49  60 N12       29.83F
$$

IAZ001>003-012>014-020>022-031-032-NEZ013-014-SDZ071-222200-
NORTHWEST IOWA

CITY           SKY/WX    TMP DP  RH WIND       PRES   REMARKS
CHEROKEE       PTSUNNY   68  48  49 W9        29.83F
DENISON        LGT RAIN  70  48  46 SW8       29.86F
ESTHERVILLE    MOSUNNY   65  47  52 N3        29.82F
LE MARS        PTSUNNY   64  50  59 W21G30    29.88R
ORANGE CITY    PTSUNNY   63  55  77 NW18G29   29.86R
SHELDON        CLOUDY    64  52  63 W22G28      N/A
SIOUX CITY     CLOUDY    66  48  52 NW21G28   29.86R
SPENCER        PTSUNNY   68  47  46 NW7       29.82F
STORM LAKE       N/A     68  45  42 NW13      29.84F
$$

ABBREVIATIONS USED IN REMARKS
   TC - TEMPERATURE IN CELSIUS
  WCI - WIND CHILL INDEX
   HX - HEAT INDEX
  VSB - VISIBILITY





USA.gov is the U.S. government's official web portal to all federal, state and local government web resources and services.